Clarksville, TN

3:33 PM CDT on May 22, 2017 (GMT -0500)
Outlaw

Weather History for KCKV - August, 2012

Change the Weather History Date:

Thursday, August 2, 2012

  Actual Average Record
Temperature  
Mean Temperature 85 °F 78 °F  
Max Temperature 98 °F 90 °F 101 °F (1952)
Min Temperature 71 °F 67 °F 53 °F (1965)
Degree Days  
Heating Degree Days 0 0  
Month to date heating degree days 0 0  
Since 1 June heating degree days 3  
Since 1 July heating degree days 0 0  
Cooling Degree Days 20 13  
Month to date cooling degree days 40 26  
Year to date cooling degree days 869  
Since 1 June cooling degree days 720  
Growing Degree Days 34 (Base 50)    
Moisture  
Dew Point 71 °F    
Average Humidity 68    
Maximum Humidity 93    
Minimum Humidity 42    
Precipitation  
Precipitation 0.02 in 0.10 in 1.39 in (1951)
Month to date precipitation 0.02 0.21  
Year to date precipitation 30.23  
Sea Level Pressure  
Sea Level Pressure 29.84 in    
Wind  
Wind Speed 5 mph (SSW)    
Max Wind Speed 14 mph    
Max Gust Speed 20 mph    
Visibility 10 miles    
Events      
T = Trace of Precipitation, MM = Missing Value Source: NWS Daily Summary

Daily Weather History Graph

Daily Weather History Graph

Search for Another Location

Airport or City:

Trip Planner

Search our weather history database for the weather conditions in past years. The results will help you decide how hot, cold, wet, or windy it might be!

Date:

Astronomy

Aug. 02, 2012 Rise Set
Actual Time 5:56 AM CDT 7:54 PM CDT
Civil Twilight 5:28 AM CDT 8:22 PM CDT
Nautical Twilight 4:53 AM CDT 8:57 PM CDT
Astronomical Twilight 4:16 AM CDT 9:34 PM CDT
Moon 8:03 PM CDT (8/2) 6:30 AM CDT (8/2)
Length of Visible Light 14h 54m
Length of Day
13h 57m
Full, 100% of the Moon is Illuminated
Aug 2
Full
Aug 9
Last Quarter
Aug 17
New
Aug 24
First Quarter
Aug 31
Full

Hourly Weather History & Observations

Time (CDT) Temp. Heat Index Dew Point Humidity Pressure Visibility Wind Dir Wind Speed Gust Speed Precip Events Conditions
12:52 AM 73.9 °F - 70.0 °F 87% 29.87 in 10.0 mi Calm Calm - N/A   Clear
1:52 AM 73.9 °F - 70.0 °F 87% 29.86 in 10.0 mi Calm Calm - N/A   Clear
2:52 AM 75.0 °F - 70.0 °F 84% 29.85 in 10.0 mi West 3.5 mph - N/A   Clear
3:52 AM 73.0 °F - 70.0 °F 90% 29.85 in 10.0 mi Calm Calm - N/A   Clear
4:52 AM 72.0 °F - 69.1 °F 91% 29.85 in 10.0 mi South 3.5 mph - N/A   Clear
5:52 AM 72.0 °F - 69.1 °F 91% 29.86 in 10.0 mi Calm Calm - N/A   Clear
6:52 AM 73.0 °F - 70.0 °F 90% 29.87 in 8.0 mi Calm Calm - N/A   Clear
7:52 AM 77.0 °F - 71.1 °F 82% 29.89 in 10.0 mi SSW 3.5 mph - N/A   Clear
8:52 AM 81.0 °F 85.2 °F 72.0 °F 74% 29.90 in 10.0 mi SW 5.8 mph - N/A   Clear
9:52 AM 84.9 °F 92.1 °F 73.9 °F 69% 29.90 in 10.0 mi SSW 6.9 mph - N/A   Clear
10:52 AM 88.0 °F 95.6 °F 73.0 °F 61% 29.88 in 10.0 mi SSE 3.5 mph - N/A   Clear
11:52 AM 91.0 °F 98.2 °F 72.0 °F 53% 29.87 in 10.0 mi SW 5.8 mph - N/A   Clear
12:52 PM 93.0 °F 100.1 °F 71.1 °F 49% 29.85 in 10.0 mi South 6.9 mph - N/A   Clear
1:52 PM 93.9 °F 100.8 °F 71.1 °F 47% 29.83 in 10.0 mi Variable 6.9 mph - N/A   Clear
2:52 PM 97.0 °F 102.8 °F 69.1 °F 40% 29.81 in 10.0 mi Calm Calm - N/A   Clear
3:52 PM 95.0 °F 104.5 °F 73.0 °F 49% 29.80 in 10.0 mi East 6.9 mph - N/A   Partly Cloudy
4:52 PM 93.0 °F 103.2 °F 73.9 °F 54% 29.79 in 10.0 mi South 6.9 mph - N/A   Partly Cloudy
5:52 PM 90.0 °F 97.9 °F 73.0 °F 57% 29.78 in 10.0 mi South 4.6 mph - N/A   Clear
6:52 PM 90.0 °F 96.9 °F 72.0 °F 55% 29.78 in 10.0 mi South 11.5 mph - N/A   Clear
7:52 PM 86.0 °F 91.5 °F 71.1 °F 61% 29.80 in 10.0 mi South 6.9 mph - N/A   Clear
8:52 PM 84.9 °F 90.7 °F 72.0 °F 65% 29.79 in 10.0 mi South 9.2 mph - N/A   Clear
9:52 PM 84.0 °F 89.6 °F 72.0 °F 67% 29.81 in 10.0 mi SSW 5.8 mph - N/A   Clear
10:52 PM 82.9 °F 88.8 °F 73.0 °F 72% 29.81 in 10.0 mi SSW 8.1 mph - N/A   Partly Cloudy
11:52 PM 80.1 °F 84.5 °F 73.9 °F 81% 29.83 in 10.0 mi Calm Calm - 0.01 in   Partly Cloudy